Find Starlink 31956

NORAD ID: 59930 Int'l Des: 2024-106 Owner: SPXS Country: US Constellation: starlink operational
LEOCIRCULAR

当前视图

正在加载3D地球...

About Starlink 31956

Starlink 31956 (NORAD 59930) is a starlink constellation satellite (v2 mini) launched Jun 1, 2024 by SPXS of US. It operates in LEO, CIRCULAR orbit with a mass of 730.00 kg.

关于 Starlink 31956

正在加载描述...

即将过境

Passes for default location (London). Set your location on the main map for personalized predictions.

高度历史

Loading altitude history...

两行轨道根数

1 59930U 24106J 26169.91070955 -.00000479 00000-0 -78759-5 0 9992
2 59930 43.0032 120.8513 0001074 272.5498 87.5231 15.27575677116005
Epoch: Jun 18, 2026 • Age: 9 hours

当前状态

高度 482.4 km
速度 7.63 km/s
星下点 4.38°N, 106.27°E
发射日期 Jun 1, 2024
运行时间 2 years
类型 internet

技术详情

分类 Payload
质量 730.00 kg
干质量 700.00 kg
总质量 730.00 kg
长度 0.30 m
直径 4.10 m
跨度 29.00 m
形状 Box + pan
制造商 SPXS
平台类型 Starlink V2M
阶段状态 In Orbit
所有者/国家 SPXS/US

Most Searched